GFSFLT2_prec_cthk_057.txt.gz
RH
61 82 79 82 79 87 92 91 76 77 77 75 74 76 66 65 49 47 48 48 40 38 37 37 38 36 36 38 39 40 40 36
53 68 84 88 78 84 93 98 96 86 87 78 73 65 64 58 54 49 52 52 45 41 38 39 37 36 38 35 39 39 39 37
62 70 77 88 87 86 93 91 98 92 93 85 75 64 64 60 57 51 54 53 48 42 41 38 36 38 33 36 40 45 46 41
68 76 84 85 87 85 92 88 97 93 90 87 87 77 75 71 58 56 63 54 49 44 39 37 38 37 36 39 44 47 47 40
78 87 88 81 81 90 97 93 90 93 96 88 88 90 74 69 59 67 61 57 50 46 43 42 47 46 41 46 44 47 47 41
77 89 88 81 80 89 92 98 95 97 95 93 93 93 78 68 65 70 63 59 51 48 50 60 59 53 52 51 48 50 50 45
73 87 89 81 79 81 85 93 98 97 92 95 93 89 72 72 74 70 65 63 58 54 65 64 62 59 55 53 54 57 53 50
70 75 82 88 89 86 88 93 95 95 96 98 94 85 79 77 83 72 66 69 66 62 70 64 59 57 55 55 56 56 57 53
64 67 77 85 90 90 89 97 97 98 98 96 91 74 81 84 80 77 70 73 72 72 69 63 56 54 54 53 52 53 51 59
63 73 79 88 91 91 94 96 99 99 97 94 81 76 85 83 79 75 73 74 73 73 68 67 63 55 55 52 52 53 54 53
73 82 74 85 91 93 98 97 99 98 97 87 79 88 89 80 71 73 70 69 71 72 71 72 70 65 57 55 52 55 51 50
64 81 79 87 89 94 98 99 99 97 91 85 84 88 85 76 72 76 71 70 71 72 73 71 69 64 60 57 55 53 46 45
51 57 76 85 88 94 98 97 98 96 89 83 86 84 83 78 81 80 73 75 76 77 74 73 72 69 68 60 59 51 49 48
42 52 61 81 92 90 95 95 96 92 88 87 87 86 85 84 82 82 81 80 84 83 80 80 78 74 68 66 67 60 49 48
33 44 59 70 89 93 93 95 97 94 92 90 90 90 88 83 85 89 84 85 88 86 84 82 80 78 74 75 73 68 68 54
29 36 49 60 74 90 91 91 94 92 92 91 90 88 85 87 88 89 88 85 85 86 82 81 82 83 73 70 67 68 79 82
26 29 39 50 62 68 79 84 84 88 89 90 91 89 86 89 91 86 84 83 82 83 81 78 76 76 79 75 63 58 58 58
24 27 31 40 49 54 61 67 73 77 79 85 92 89 91 91 92 84 79 82 82 80 81 77 74 75 76 76 78 78 73 72
26 28 30 35 41 49 53 56 61 65 70 71 72 70 74 78 78 80 76 77 78 81 82 85 84 78 81 77 75 79 81 77
29 27 29 31 36 42 49 54 55 57 58 59 59 59 59 64 69 70 68 69 70 71 76 84 77 79 82 81 79 71 70 77

GFSFLT2_prec_cthk_060.txt.gz
RH
42 50 66 74 82 85 96 93 98 98 90 76 74 77 79 63 54 45 42 44 37 40 33 33 34 37 40 43 48 52 41 35
40 53 59 87 86 85 97 85 88 98 93 78 72 74 74 63 53 50 50 41 40 40 35 35 37 36 43 48 49 46 40 32
47 57 62 73 82 88 86 91 82 99 94 79 77 72 79 65 67 64 56 55 47 40 37 36 34 36 46 47 46 47 38 33
64 69 72 74 74 87 91 89 85 98 95 85 85 66 76 77 76 69 55 52 46 40 38 38 33 40 48 46 46 50 40 34
63 68 78 82 83 85 84 88 90 98 98 94 89 78 77 78 76 72 54 50 46 41 39 37 37 43 47 51 49 48 40 32
57 65 83 88 89 82 83 90 86 95 98 91 85 83 91 87 76 71 56 55 51 42 42 42 40 50 54 46 51 51 39 35
53 59 72 85 86 86 88 85 83 86 91 94 88 89 90 89 77 75 63 63 51 45 48 53 51 60 60 54 54 52 40 37
45 53 62 77 82 82 88 89 86 83 92 90 95 91 92 93 77 75 73 62 50 52 60 61 60 62 59 57 60 54 45 41
40 52 63 67 79 84 84 87 84 87 92 91 94 94 91 80 80 75 75 63 56 57 68 63 63 60 58 56 54 58 52 49
39 61 66 67 76 85 89 88 86 89 93 96 95 94 91 85 78 82 73 70 61 68 68 64 61 60 56 53 53 55 60 53
37 58 68 69 76 87 88 88 87 90 94 94 94 86 85 91 86 86 72 86 71 70 69 64 65 64 56 55 55 52 52 52
37 49 66 66 79 79 82 86 90 92 96 94 93 87 90 98 93 96 89 91 80 70 67 68 71 68 67 58 56 54 50 47
35 43 51 63 74 78 84 89 94 95 95 91 96 87 87 90 90 87 79 78 72 72 69 71 71 70 71 70 60 57 53 49
31 38 45 52 71 80 83 90 95 97 97 91 89 82 89 87 90 79 81 78 73 73 75 76 73 72 71 70 63 57 56 53
29 34 41 52 70 84 87 88 92 94 95 90 86 89 88 88 84 77 78 76 79 82 79 76 75 74 73 69 69 67 66 65
26 31 37 49 61 78 86 86 88 90 90 88 89 88 87 87 85 82 79 78 80 86 85 81 80 77 76 73 72 73 81 88
23 29 33 40 50 63 71 77 82 82 85 88 88 89 86 85 86 84 81 81 83 93 87 82 80 80 83 77 72 69 69 73
23 26 31 35 42 51 59 64 69 77 77 82 87 86 86 84 84 85 87 84 83 88 84 78 75 73 80 85 78 72 66 63
28 28 30 34 39 46 54 60 60 65 70 75 78 82 77 75 73 76 77 81 87 84 81 76 76 79 81 86 80 77 79 84
37 32 29 32 35 40 46 53 58 59 62 63 62 65 71 69 67 68 73 81 81 79 75 72 75 76 81 92 87 83 81 81

GFSFLT2_prec_cthk_063.txt.gz
RH
38 39 44 55 64 70 84 89 97 98 98 86 78 83 78 72 75 60 45 37 36 38 42 43 44 45 44 45 42 40 34 29
41 47 49 55 66 76 78 86 93 92 96 98 92 92 69 71 66 66 49 41 38 43 39 45 42 44 46 46 46 41 35 26
51 47 53 61 67 77 87 90 92 89 90 96 96 84 66 74 63 48 45 46 47 41 44 47 42 45 47 47 47 39 31 24
50 48 50 58 64 72 81 86 92 94 90 91 96 82 70 65 63 47 45 50 46 43 47 42 43 46 51 51 45 39 33 27
54 57 60 67 78 79 75 81 84 93 86 90 95 83 72 60 61 53 58 58 50 46 48 39 44 49 52 50 48 41 38 31
49 52 60 66 81 87 85 81 83 85 85 94 94 86 69 77 79 71 69 53 51 51 40 39 46 53 55 52 48 43 38 31
40 47 53 63 72 82 84 82 83 87 97 96 92 82 78 76 84 82 73 57 45 40 36 44 51 52 54 56 51 45 40 34
36 44 54 66 72 76 85 86 86 86 91 92 89 86 80 84 84 73 70 55 44 41 38 51 53 53 57 66 57 46 44 37
35 44 63 68 72 71 78 83 83 84 85 86 87 84 86 88 82 76 72 56 51 51 49 53 57 56 63 62 60 52 47 39
35 43 66 75 73 73 78 79 82 81 85 88 88 88 90 90 85 78 76 65 60 60 57 60 62 59 64 63 60 55 49 46
32 40 59 71 77 84 86 87 85 86 86 89 89 88 89 90 81 77 75 70 65 64 65 66 67 61 60 62 59 55 55 51
29 38 50 64 74 82 86 87 91 92 90 89 91 93 90 86 82 76 74 75 70 69 71 75 65 61 61 61 58 58 52 52
27 33 43 55 67 83 86 86 87 89 92 94 92 90 87 91 85 82 86 89 77 71 74 73 70 67 67 68 65 58 57 56
25 29 36 46 57 72 81 84 87 93 96 97 94 95 91 90 87 91 91 93 93 85 74 76 78 73 73 76 72 68 61 54
23 26 33 40 55 73 78 81 87 91 96 98 97 92 90 90 90 95 94 93 95 91 74 77 78 84 82 81 75 69 62 58
21 24 30 36 48 65 70 74 82 85 91 96 93 90 93 91 94 95 95 94 87 82 75 73 83 82 81 78 74 70 68 65
20 24 27 33 40 50 62 67 76 80 84 90 94 92 86 91 92 90 88 80 77 73 73 78 85 80 79 77 74 72 72 71
23 23 28 32 36 42 47 55 60 69 75 82 86 84 84 84 87 84 80 76 77 75 75 80 85 81 80 75 74 72 71 69
29 28 28 31 36 41 46 49 54 59 64 70 75 84 83 81 82 80 82 79 77 78 80 81 86 86 79 76 79 81 81 79
38 34 29 29 32 37 43 48 51 53 54 57 61 66 67 69 70 72 73 73 73 74 79 83 83 86 78 80 80 84 85 85

GFSFLT2_prec_cthk_066.txt.gz
RH
30 40 45 41 45 55 83 97 90 92 94 96 90 88 76 71 63 54 47 40 36 39 41 46 43 39 41 41 45 39 40 34
40 49 50 47 45 53 67 75 89 95 94 98 97 95 86 79 70 66 45 37 43 47 44 45 42 47 46 51 44 42 37 28
46 50 50 52 49 54 63 76 88 92 93 92 93 97 93 75 69 72 64 41 39 39 39 48 52 54 51 49 45 43 33 26
45 48 46 52 53 55 61 70 85 86 90 91 90 96 95 82 74 63 56 47 46 45 52 53 55 53 57 49 46 38 29 25
40 46 50 53 56 63 72 76 79 82 84 87 91 92 97 80 72 59 59 57 58 51 53 58 58 59 50 47 44 39 34 26
33 40 43 49 61 64 77 82 79 81 80 86 87 97 89 78 71 60 47 48 45 47 49 56 58 57 52 45 45 42 37 31
28 34 40 47 61 63 75 83 82 83 83 83 85 90 85 71 59 58 51 47 50 50 47 55 71 60 50 46 49 43 42 33
26 29 36 46 61 67 76 88 85 88 88 90 93 91 80 76 65 68 62 57 56 53 54 59 65 58 52 51 51 48 46 38
24 27 34 51 64 68 74 87 88 88 95 98 94 87 85 82 81 79 79 72 61 51 50 55 55 56 60 57 55 52 49 42
22 26 34 57 68 69 71 83 86 89 89 93 95 88 82 74 79 79 79 73 60 49 49 53 52 59 65 62 63 56 54 41
21 27 33 53 62 72 79 83 90 90 91 94 93 92 87 80 84 77 69 64 57 46 52 51 53 63 68 67 62 60 58 48
21 26 32 46 59 72 83 87 90 91 91 90 90 93 89 87 86 80 73 68 63 55 51 54 57 63 71 69 66 64 61 57
21 26 32 42 55 66 85 86 89 91 91 90 90 89 90 90 87 83 76 76 68 64 60 61 64 70 73 75 70 67 62 60
21 22 31 40 50 67 78 85 90 95 95 95 93 93 94 92 91 86 82 78 72 71 68 67 72 76 72 74 77 71 63 59
20 19 27 36 50 70 81 85 88 91 95 96 96 97 95 94 92 86 83 85 79 80 78 73 77 79 76 78 78 75 73 68
20 18 26 33 42 66 73 78 82 84 88 95 99 99 97 95 93 91 90 90 90 89 82 73 76 79 82 82 83 85 76 67
27 17 24 31 36 45 62 67 74 82 89 95 98 97 96 96 95 97 95 94 94 95 92 86 75 77 82 83 87 87 78 72
36 19 25 29 35 40 44 52 64 74 83 92 94 97 97 98 97 96 97 95 94 96 92 90 79 82 80 86 84 80 77 75
41 29 24 27 31 40 44 45 49 54 64 75 86 93 94 94 96 97 96 97 93 93 92 88 82 75 76 81 78 79 76 73
43 36 30 25 29 33 40 44 47 49 52 61 72 78 84 88 90 93 96 92 90 90 88 82 75 77 81 82 78 77 77 80

GFSFLT2_prec_cthk_069.txt.gz
RH
26 29 35 53 55 52 57 73 94 93 87 80 96 76 74 67 63 57 52 42 46 45 41 39 45 47 38 37 38 40 43 40
22 33 44 49 57 53 56 66 77 98 95 94 92 93 92 90 80 71 64 49 46 43 37 41 45 37 36 44 45 51 45 38
24 36 43 51 51 48 52 60 71 75 84 95 96 91 94 93 81 71 62 49 46 44 44 43 43 39 43 47 53 47 39 33
25 37 41 41 47 52 50 56 61 70 80 88 93 89 93 93 90 75 62 54 54 53 48 46 44 49 53 53 52 44 36 31
25 33 37 39 41 49 54 57 68 74 82 96 93 90 93 97 94 77 72 70 55 54 54 54 45 49 57 57 50 38 36 30
23 28 31 35 40 50 58 66 78 80 86 91 89 85 89 92 94 77 66 69 60 53 50 47 52 61 65 61 46 44 35 29
20 25 29 31 34 48 61 67 75 86 88 90 84 87 91 91 89 72 59 59 55 56 58 55 58 61 58 53 52 47 40 31
23 22 25 28 33 46 60 66 77 87 87 89 88 91 92 91 87 69 56 55 59 55 58 58 55 56 59 57 54 49 43 36
25 22 25 28 35 56 63 68 84 92 94 92 90 91 97 91 80 62 57 54 47 45 55 60 56 72 73 62 53 52 48 42
27 20 25 28 38 55 63 65 82 90 95 96 97 96 95 84 72 55 55 61 53 50 57 65 64 65 62 64 55 55 54 48
29 19 23 29 40 54 64 73 77 85 94 99 98 98 91 85 76 67 63 65 62 61 63 67 65 60 60 68 65 61 62 51
30 19 22 28 42 54 65 79 80 84 89 95 99 96 93 90 83 75 72 75 75 70 64 71 65 61 63 68 74 65 66 59
31 18 21 27 38 49 62 79 81 84 88 93 94 96 95 90 87 81 77 75 74 71 67 66 60 63 64 70 77 78 72 69
33 19 19 24 34 48 64 81 82 85 87 91 93 94 95 94 92 89 80 73 70 63 63 62 61 61 67 71 76 79 75 73
34 20 17 23 30 54 67 77 82 85 88 93 90 91 96 98 97 94 87 81 77 71 69 64 57 63 68 71 79 79 77 76
38 25 17 22 28 49 61 68 79 84 90 92 96 94 93 97 95 97 90 84 85 85 78 73 68 68 73 79 80 75 76 76
41 30 17 21 28 36 51 61 68 76 84 89 93 99 96 95 97 98 96 91 88 91 89 81 74 71 72 83 84 77 82 80
45 34 22 23 27 33 41 49 55 62 74 83 89 96 97 98 98 97 97 95 93 91 92 89 84 83 78 78 74 81 82 87
43 42 30 25 28 31 39 45 47 52 59 69 86 94 96 97 98 97 97 96 95 96 96 96 94 92 81 75 84 84 83 85
41 44 37 30 27 29 35 41 45 48 54 62 70 86 94 94 94 97 98 96 94 92 95 96 98 94 90 82 84 83 82 81

GFSFLT2_prec_cthk_072.txt.gz
RH
24 23 23 30 42 54 65 68 76 81 91 95 90 86 83 85 77 69 61 58 58 56 50 43 39 42 40 39 33 32 37 40
23 21 26 37 47 58 67 66 65 75 87 83 99 94 93 91 92 83 66 61 56 47 49 48 39 37 41 44 38 41 38 42
22 21 27 38 46 54 63 63 64 68 75 80 90 95 96 92 96 94 80 68 57 45 48 50 40 38 43 48 37 38 48 51
23 22 26 36 41 48 51 52 54 61 70 75 87 91 95 97 94 94 91 74 61 56 44 46 39 39 45 40 35 45 48 47
24 22 26 32 35 39 48 50 53 64 70 80 77 85 91 97 94 95 91 71 57 58 49 46 43 38 41 42 44 53 45 43
24 22 24 28 31 38 40 46 57 62 69 75 79 90 96 91 92 92 94 68 64 61 54 55 45 41 45 53 55 54 41 36
26 26 25 24 28 34 38 44 56 67 73 84 87 96 93 90 94 94 94 75 73 63 57 51 50 54 56 64 59 60 36 34
28 28 27 25 25 31 38 51 61 66 71 84 93 92 88 90 93 95 91 81 77 72 59 49 49 57 56 63 71 48 41 40
31 30 29 25 26 32 39 56 65 69 81 92 90 90 90 91 95 95 86 75 70 62 61 54 52 52 60 63 65 51 53 41
37 33 29 26 28 31 44 60 67 72 90 97 96 95 95 94 96 96 83 67 63 64 65 64 62 60 65 56 64 63 56 47
44 35 27 26 27 32 46 58 67 76 91 96 98 98 96 96 96 91 83 65 64 69 57 62 59 60 59 69 71 67 57 53
46 36 26 25 27 32 44 59 67 83 90 95 99 99 97 98 98 92 74 59 72 69 64 64 64 66 63 66 66 71 62 61
42 37 24 24 25 32 43 60 73 86 91 95 98 99 98 98 90 85 65 59 69 69 71 71 68 70 63 71 63 76 77 68
45 36 23 23 26 31 50 66 80 87 92 94 95 98 98 97 91 84 71 72 71 75 77 81 77 77 76 71 69 73 74 79
45 37 25 21 26 31 56 64 76 85 89 93 97 94 94 93 95 93 83 79 77 77 80 84 79 82 72 66 65 69 72 82
45 39 30 19 26 29 51 58 75 81 85 90 93 96 97 98 97 95 94 85 81 75 75 74 75 69 69 66 64 69 69 75
46 43 32 18 27 30 40 57 65 72 79 87 92 95 96 97 98 96 96 94 87 76 80 68 77 74 68 63 63 70 73 78
47 47 37 21 25 31 37 46 54 61 69 78 86 92 97 95 94 99 97 95 90 83 79 79 82 78 72 69 70 73 76 82
46 48 45 27 23 31 36 44 49 53 59 65 71 86 92 95 97 97 96 97 96 86 89 88 87 87 85 83 79 77 83 82
49 46 47 35 26 30 34 40 45 49 51 56 65 75 89 94 96 97 97 97 97 95 90 93 93 91 88 91 91 85 85 83

GFSFLT2_prec_cthk_075.txt.gz
RH
29 25 25 27 32 37 46 56 63 72 80 87 95 96 98 92 85 83 64 57 48 54 55 49 45 38 50 43 45 37 40 34
28 25 24 25 33 43 47 54 65 71 72 75 89 97 94 97 93 85 80 62 60 60 62 57 55 40 45 42 44 42 32 33
27 25 23 24 34 43 47 54 61 63 67 74 86 80 77 87 92 89 91 87 74 68 61 52 58 45 44 41 38 36 37 38
28 25 23 24 32 37 44 51 61 64 63 68 72 78 80 82 89 93 96 88 84 67 58 54 55 50 42 41 42 48 41 45
30 25 23 25 30 32 35 41 47 50 56 63 71 71 80 82 89 95 98 97 87 72 67 55 46 46 40 40 42 40 37 43
31 26 25 29 28 30 34 37 39 40 47 61 65 74 81 82 89 95 97 98 89 70 67 57 43 43 40 41 45 38 42 48
33 28 27 30 31 30 33 35 36 49 57 67 71 79 82 87 93 94 97 96 90 66 65 55 47 43 48 42 42 38 43 49
35 30 29 31 32 30 31 35 36 50 66 73 72 79 86 90 95 93 97 95 87 65 64 63 55 57 49 45 48 50 48 56
37 37 36 33 32 30 29 32 39 58 68 70 75 82 94 97 96 96 97 96 80 72 69 66 61 58 53 54 60 60 59 55
41 43 40 34 29 27 29 35 47 62 65 70 83 94 97 94 92 94 98 96 87 82 84 66 59 55 58 59 66 67 62 43
44 47 44 36 28 28 30 39 52 62 70 74 95 98 95 93 93 96 98 94 90 82 76 69 63 63 58 59 64 66 65 52
45 49 46 38 28 29 33 44 53 63 72 83 93 98 98 94 97 98 98 97 80 75 69 71 72 62 60 61 63 68 73 76
46 49 47 39 26 28 32 43 58 71 82 91 93 97 99 99 97 99 98 95 78 66 67 67 69 65 65 66 70 79 79 77
42 46 48 38 23 28 34 58 72 81 88 92 91 96 98 98 98 99 95 91 76 67 69 66 66 64 69 73 74 76 74 73
38 46 46 39 25 29 38 61 68 81 88 92 91 95 99 99 98 97 94 88 68 66 71 76 73 70 70 71 72 71 68 68
43 46 45 40 26 29 38 60 65 81 86 92 97 95 94 99 99 95 92 81 65 66 73 77 79 83 85 77 76 75 72 70
44 48 46 39 27 29 38 51 64 70 77 87 92 96 96 94 92 91 91 83 74 72 70 78 83 84 81 83 79 66 63 61
47 49 52 43 29 30 36 46 55 63 69 76 87 92 97 97 96 95 93 89 82 78 79 78 78 81 82 81 74 67 64 62
49 49 56 50 32 30 35 44 51 57 60 64 73 79 90 96 98 97 96 97 95 88 87 85 75 80 76 78 80 79 76 71
50 53 55 51 36 30 34 41 47 52 56 60 63 66 83 92 96 97 99 98 96 97 90 85 84 81 77 84 84 86 82 85